Bar Harbor, ME

8:42 AM EST on November 21, 2019 (GMT -0500)
Hancock County-Bar Harbor

Weather History for KBHB - October, 2019

Change the Weather History Date:

Wednesday, October 23, 2019

  Actual Average Record
Temperature  
Mean Temperature 54 °F -  
Max Temperature 59 °F 57 °F 76 °F (1979)
Min Temperature 48 °F 41 °F 26 °F (1997)
Degree Days  
Heating Degree Days 12    
Growing Degree Days 4 (Base 50)    
Moisture  
Dew Point 52 °F    
Average Humidity 93    
Maximum Humidity 100    
Minimum Humidity 80    
Precipitation  
Precipitation 1.01 in - - ()
Sea Level Pressure  
Sea Level Pressure 29.81 in    
Wind  
Wind Speed 12 mph (SSE)    
Max Wind Speed 20 mph    
Max Gust Speed 31 mph    
Visibility 6 miles    
Events Rain    
Averages and records for this station are not official NWS values.
T = Trace of Precipitation, MM = Missing Value Source: NWS Daily Summary

Daily Weather History Graph

Daily Weather History Graph

Search for Another Location

Airport or City:

Astronomy

Oct. 23, 2019 Rise Set
Actual Time 6:58 AM EDT 5:36 PM EDT
Civil Twilight 6:28 AM EDT 6:06 PM EDT
Nautical Twilight 5:54 AM EDT 6:39 PM EDT
Astronomical Twilight 5:21 AM EDT 7:13 PM EDT
Moon 12:55 AM EDT (10/23) 3:40 PM EDT (10/23)
Length of Visible Light 11h 37m
Length of Day
10h 37m
Waning Crescent, 27% of the Moon is Illuminated
Oct 23
Waning Crescent
Oct 27
New
Nov 4
First Quarter
Nov 12
Full
Nov 19
Last Quarter

Hourly Weather History & Observations

Time (EDT) Temp. Dew Point Humidity Pressure Visibility Wind Dir Wind Speed Gust Speed Precip Events Conditions
12:56 AM 52.0 °F 48.0 °F 86% 30.05 in 10.0 mi ESE 8.1 mph 16.1 mph N/A   Overcast
1:56 AM 52.0 °F 48.0 °F 86% 30.01 in 10.0 mi East 15.0 mph 23.0 mph N/A   Overcast
2:36 AM 51.8 °F 48.2 °F 88% 29.98 in 9.0 mi East 16.1 mph 23.0 mph N/A   Overcast
2:56 AM 52.0 °F 48.9 °F 89% 29.98 in 9.0 mi East 13.8 mph 21.9 mph 0.00 in Rain Light Rain
3:47 AM 51.8 °F 50.0 °F 94% 29.93 in 3.0 mi East 17.3 mph 24.2 mph 0.01 in Rain Light Rain
3:56 AM 51.1 °F 50.0 °F 96% 29.94 in 4.0 mi East 17.3 mph 25.3 mph 0.01 in Rain Light Rain
4:18 AM 51.8 °F 50.0 °F 94% 29.91 in 3.0 mi East 13.8 mph 27.6 mph 0.01 in Rain Light Rain
4:32 AM 51.8 °F 51.8 °F 100% 29.92 in 2.5 mi East 10.4 mph 20.7 mph 0.04 in Rain Rain
4:56 AM 52.0 °F 51.1 °F 97% 29.90 in 3.0 mi East 12.7 mph 23.0 mph 0.08 in Rain Rain
5:52 AM 53.6 °F 51.8 °F 94% 29.88 in 6.0 mi ESE 15.0 mph 24.2 mph 0.12 in Rain Rain
5:56 AM 53.1 °F 52.0 °F 96% 29.88 in 6.0 mi ESE 12.7 mph 24.2 mph 0.13 in Rain Light Rain
6:56 AM 54.0 °F 53.1 °F 97% 29.86 in 5.0 mi ESE 10.4 mph 19.6 mph 0.04 in Rain Light Rain
7:56 AM 55.0 °F 54.0 °F 96% 29.83 in 3.0 mi SE 11.5 mph 24.2 mph 0.04 in Rain Light Rain
8:09 AM 55.4 °F 53.6 °F 94% 29.81 in 2.0 mi SE 15.0 mph 28.8 mph 0.08 in Rain Heavy Rain
8:56 AM 55.9 °F 54.0 °F 93% 29.80 in 5.0 mi SE 18.4 mph 27.6 mph 0.14 in Rain Light Rain
9:56 AM 57.0 °F 55.0 °F 93% 29.78 in 7.0 mi SE 17.3 mph 28.8 mph 0.04 in Rain Light Rain
10:26 AM 57.2 °F 55.4 °F 94% 29.74 in 9.0 mi SSE 19.6 mph 29.9 mph 0.02 in Rain Light Rain
10:56 AM 57.0 °F 55.0 °F 93% 29.75 in 8.0 mi SSE 16.1 mph 31.1 mph 0.12 in Rain Light Rain
11:28 AM 57.2 °F 55.4 °F 94% 29.74 in 7.0 mi SSE 16.1 mph 24.2 mph 0.17 in Rain Rain
11:56 AM 57.0 °F 55.9 °F 96% 29.72 in 9.0 mi SE 17.3 mph 23.0 mph 0.22 in Rain Light Rain
12:25 PM 57.2 °F 55.4 °F 94% 29.70 in 5.0 mi SE 10.4 mph 18.4 mph 0.09 in Rain Rain
12:56 PM 57.0 °F 55.9 °F 96% 29.67 in 6.0 mi Variable 6.9 mph - 0.17 in Rain Rain
1:56 PM 57.9 °F 57.0 °F 97% 29.64 in 4.0 mi South 10.4 mph - 0.00 in   Overcast
2:39 PM 57.2 °F 57.2 °F 100% 29.63 in 1.8 mi South 6.9 mph - 0.02 in Rain Light Rain
2:49 PM 57.2 °F 57.2 °F 100% 29.63 in 3.0 mi SSW 6.9 mph - 0.02 in Rain Light Rain
2:56 PM 59.0 °F 57.9 °F 96% 29.63 in 3.0 mi SSW 11.5 mph - 0.02 in Rain Light Rain
3:11 PM 57.2 °F 57.2 °F 100% 29.63 in 2.5 mi SSW 9.2 mph - 0.00 in   Overcast
3:40 PM 55.4 °F 55.4 °F 100% 29.65 in 4.0 mi West 16.1 mph 24.2 mph 0.00 in Rain Light Rain
3:56 PM 53.1 °F 52.0 °F 96% 29.67 in 9.0 mi WNW 13.8 mph 26.5 mph 0.00 in   Overcast
4:33 PM 53.6 °F 51.8 °F 94% 29.69 in 10.0 mi WNW 11.5 mph 21.9 mph N/A   Overcast
4:56 PM 53.1 °F 50.0 °F 89% 29.73 in 10.0 mi WNW 11.5 mph - N/A   Mostly Cloudy
5:18 PM 53.6 °F 48.2 °F 82% 29.75 in 10.0 mi WNW 10.4 mph 19.6 mph N/A   Mostly Cloudy
5:56 PM 51.1 °F 48.9 °F 92% 29.78 in 10.0 mi Variable 5.8 mph - N/A   Scattered Clouds
7:56 PM 50.0 °F 48.0 °F 93% 29.87 in 10.0 mi West 5.8 mph - N/A   Clear
8:56 PM 50.0 °F 48.0 °F 93% 29.91 in 10.0 mi West 5.8 mph - N/A   Clear
9:56 PM 48.9 °F 46.0 °F 90% 29.95 in 10.0 mi WSW 4.6 mph - N/A   Clear
10:56 PM 50.0 °F 44.1 °F 80% 29.98 in 10.0 mi West 4.6 mph - N/A   Clear
11:56 PM 48.0 °F 44.1 °F 86% 29.99 in 10.0 mi WSW 4.6 mph - N/A   Clear